STARLINK-3106, 49164

Orbit data source: Space-Track

STARLINK-3106, 49164 is a payload satellite owned by SpaceX/Seattle (US) in LEO that was launched on Tue, 14 Sep 2021 UTC via an FALCON 9 launch vehicle from the Air Force Western Test Range (AFWTR). Payload-class satellites include a variety of spacecraft equipped with specific instruments for various scientific and technological missions. These include communications satellites like Starlink; space stations such as the ISS; scientific satellites like the Hubble; Earth observation satellites from companies like Planet Labs, Umbra, and HawkEye 360; GPS; miniature CubeSats for education and research; and military/defense satellites.

Loading next visibility...
Identifier
49164, 2021-082AL
Orbit
LEO
Last TLE update
10 hours ago
Origin
Manufacturer
SpaceX/Seattle
Mission
Operational Commercial Communications
Bus & Motor
STARLINK, Unknown motor
Mass
297 kg wet, ~275 kg dry
Launch date (UTC)
2021-09-14 (4 years ago)
Launch vehicle
FALCON 9
Launch site
Air Force Western Test Range (AFWTR)
Object type
Payload
Rocket body
Debris
Shape & HBR
Box + 1 Pan, 8.86 m
Radar Cross Section
13.562 m², Large (>1 m²)

Expand to show TLE details & history

TLE from 10 hours ago
0 STARLINK-3106
1 49164U 21082AL  25128.94612918  .00001138  00000-0  10319-3 0  9995
2 49164  69.9986 322.8273 0003202 270.4543  89.6249 14.98322393201995
Epoch: 2025-05-08T22:42Z
Definitive object data (Epoch: 2025-05-08T22:42:25.561Z)
Latitude
-0.00002°
Longitude
115.21146°
Altitude
574.489 km
Speed
7.574 km/s
True Right ascension
21h 31m 18s
True Declination
0° 00' 00"
Sunlit
Object was in daylight at TLE epoch
Visualization TLE readout
Latitude
-8.82944°
Longitude
-62.66291°
Altitude
575.702 km
Speed
7.573 km/s
Apparent Right ascension
07h 53m 53s
Apparent Declination
-27° 13' 40"
Sunlit
Object is in daylight
Visualization observer readout
Local Sidereal Time
17:19:02
Azimuth
279.621° WNW
Elevation
-55.661°
Doppler factor
1
Orbital elements
Apogee altitude
572.253 km
Perigee altitude
567.803 km
Semi-major axis
6,948.165 km
Eccentricity
0.0003202
Inclination
69.9986°
RAAN
322.8273°
Arg. of periapsis
270.4543°
True anomaly
89.66159°
Mean anomaly
89.6249°
Eccentric anomaly
89.64325°
Mean motion
3.74747 °/min
BSTAR
0.00010319
Orbital period
96.06 mins
Loading maneuver chart data...
Loading SW <> Apogee altitude chart data...
Loading historical data...
Loading historical data...
Loading historical data...
Loading historical data...
Loading historical data...
Loading historical data...
Loading historical data...

STARLINK-3106 Visibility forecast

Observer location: undefined°, undefined°

Span
Click to sort rows by Start time (UTC) header in descending order
Start Az.
Max El. time (UTC)
Max El. Az.
Max El.
End time (UTC)
End Az.
4 mins2025-05-09 13:15:45.317Z137.565° SSE2025-05-09 13:17:45.317Z107.492° ESE15.293°2025-05-09 13:19:45.317Z75.105° E
6 mins2025-05-09 14:53:45.317Z241.387° WSW2025-05-09 14:55:45.317Z291.182° WNW33.074°2025-05-09 14:59:45.317Z9.527° NNE
6 mins2025-05-09 23:17:45.317Z5.939° NNE2025-05-09 23:19:45.317Z48.436° ENE29.032°2025-05-09 23:23:45.317Z124.994° SE
4 mins2025-05-10 00:56:45.317Z281.224° WNW2025-05-10 00:57:45.317Z263.386° W17.955°2025-05-10 01:00:45.317Z213.934° SW
|